Theta_e
328 328 328 329 328 326 327 328 328 328 328 329 329 328 327 327 326 326 326 327 327 327 327 327 327 328 328 327 327 327 327 328 328 327 326 327 328 327 326 325 324 324 324
327 328 328 329 327 325 328 328 328 328 328 328 328 328 328 327 326 327 327 326 325 326 326 327 327 327 326 327 327 327 327 327 328 327 326 327 326 325 324 325 325 325 324
327 328 329 328 328 326 326 326 328 328 328 328 328 328 328 327 327 327 328 326 326 325 325 325 326 326 326 327 327 327 328 328 327 326 327 327 325 324 326 327 327 327 326
326 328 329 329 328 326 326 327 328 328 328 327 328 328 328 327 327 327 327 326 326 326 325 325 325 326 326 327 328 327 328 328 328 327 327 326 327 327 327 327 328 327 328
325 328 328 328 328 327 327 327 327 328 329 328 328 329 327 327 327 327 326 325 323 322 323 325 325 326 327 327 328 328 328 327 326 326 326 325 326 326 326 327 326 322 321
324 327 328 328 328 327 328 328 328 328 328 328 328 328 327 327 327 326 325 323 323 323 323 325 326 326 327 327 326 326 327 327 326 326 325 325 325 326 326 327 326 320 318
324 326 327 327 329 329 328 325 327 328 328 328 327 327 327 327 326 326 326 325 324 324 325 325 325 326 326 326 326 327 327 327 327 327 327 326 326 327 327 326 323 318 321
323 324 327 327 328 329 328 324 326 325 328 327 328 327 327 327 327 326 325 326 326 326 326 326 326 326 326 325 326 325 326 326 326 325 326 327 327 327 322 320 320 317 315
323 323 326 327 327 329 329 324 324 324 327 327 327 327 326 327 326 326 326 326 326 326 326 325 324 325 323 324 323 324 324 324 325 322 322 323 320 321 319 320 320 320 317
323 323 325 326 328 327 329 324 322 324 326 326 326 327 327 326 326 326 325 326 326 325 326 325 324 326 326 323 323 322 324 323 323 320 320 321 324 322 321 321 322 322 314
323 323 323 324 327 326 329 324 322 322 324 324 324 326 327 327 327 327 326 326 326 326 325 325 324 325 326 323 322 322 325 324 322 321 321 319 316 316 317 318 321 319 311
323 323 323 323 327 326 326 323 322 321 322 322 322 322 324 327 328 328 327 326 326 326 326 325 325 326 326 323 322 322 322 322 321 319 313 311 311 311 311 311 311 312 312
322 322 322 322 324 327 327 324 322 320 319 319 321 322 321 324 325 328 328 327 327 326 326 325 325 326 324 321 320 320 319 318 314 313 313 312 312 311 310 310 309 310 309
321 321 321 321 322 325 326 326 324 321 320 319 319 321 322 322 324 325 326 327 327 326 326 326 326 325 319 318 319 320 315 314 314 314 314 312 310 309 308 309 309 306 305
320 319 320 320 321 322 324 326 326 325 324 321 320 319 321 322 323 323 324 324 324 324 324 325 323 318 317 317 319 317 314 314 314 313 313 311 309 307 307 308 307 304 299
318 317 318 319 319 321 322 324 325 325 325 324 324 323 322 319 319 323 322 323 323 322 320 321 320 319 317 315 315 314 313 313 313 313 312 310 309 307 307 305 306 303 297
318 317 316 317 318 319 320 321 322 323 324 324 324 324 325 325 324 321 316 318 317 322 321 320 319 319 319 316 314 314 314 312 311 312 312 311 311 309 307 303 301 299 295
318 318 317 317 317 319 320 320 321 322 322 323 324 324 324 325 325 324 322 318 311 312 315 320 318 316 316 317 315 313 311 309 309 311 312 311 310 308 305 302 299 297 294
318 317 317 317 317 318 319 320 320 321 321 321 323 323 323 325 325 324 323 321 317 310 311 312 315 316 314 313 313 311 309 308 308 310 311 310 308 306 302 301 300 296 294
319 318 318 317 317 318 319 320 320 320 320 320 321 322 322 323 322 322 321 321 319 317 315 310 311 312 313 313 310 310 305 305 307 310 311 310 308 305 302 301 299 295 295
319 319 318 317 317 318 318 319 320 320 319 319 319 320 320 322 321 322 322 321 320 319 319 318 310 309 312 312 311 307 304 304 307 310 309 308 306 302 301 300 297 295 295
320 319 318 318 318 318 318 319 319 319 319 319 319 319 320 320 320 319 319 320 321 320 319 319 318 318 312 310 313 311 307 306 307 310 311 308 305 301 300 298 297 296 296
320 319 318 319 319 319 318 319 319 319 319 319 319 318 319 319 319 319 319 318 316 318 320 319 316 317 317 316 312 312 315 315 316 313 310 306 304 301 300 298 297 297 296
321 320 319 320 319 319 319 319 319 319 319 319 319 318 318 319 319 319 319 318 317 318 317 317 317 317 317 316 316 313 311 313 316 312 308 304 301 301 300 298 297 297 297
321 321 321 320 320 319 319 319 319 319 319 319 319 319 319 319 319 319 319 320 319 318 318 318 317 317 316 316 315 314 312 311 312 310 308 306 303 301 298 297 297 297 296
322 322 321 321 321 320 320 319 319 319 319 319 319 319 319 319 319 320 320 319 319 319 319 318 318 316 315 314 313 312 311 310 309 309 307 303 301 298 297 299 298 297 296
Wind_Speed
10 6 4 2 2 3 4 6 6 6 6 6 9 11 11 12 13 14 13 13 13 12 11 11 14 16 20 16 19 14 13 13 10 13 24 28 25 35 27 23 20 17 12
11 7 5 3 4 5 6 5 6 6 7 9 10 13 13 13 13 13 12 11 12 12 12 13 14 16 16 16 18 16 16 17 19 17 24 26 24 32 28 21 18 14 11
12 10 8 5 5 5 7 6 5 7 8 9 11 14 15 15 13 11 12 13 12 11 11 12 14 16 17 16 17 17 16 19 20 20 18 23 27 28 24 18 14 12 8
14 12 9 8 7 7 9 9 7 8 9 10 12 14 14 13 12 11 13 14 15 12 11 11 14 15 18 17 17 17 19 21 23 22 22 21 22 24 23 17 11 8 6
16 14 11 9 9 8 9 9 9 9 8 11 13 12 12 14 14 13 15 17 16 14 13 13 14 14 16 15 17 17 19 19 22 20 21 20 19 20 17 13 10 9 9
19 16 13 11 11 9 7 6 6 9 11 13 15 15 13 15 13 14 18 19 17 16 18 17 17 17 17 19 17 19 22 22 23 19 15 17 19 20 18 14 14 10 4
21 17 15 14 12 9 7 6 10 9 11 14 12 12 13 15 13 16 17 20 20 20 21 26 26 24 23 20 18 22 19 16 16 17 22 21 23 23 20 16 14 10 9
23 20 17 16 15 11 9 8 10 10 12 13 13 11 14 16 16 17 17 19 21 22 21 23 21 19 16 19 20 18 12 9 10 9 12 15 15 19 16 14 14 16 14
26 23 21 19 16 16 14 11 8 9 12 11 11 12 12 19 16 17 19 20 22 21 23 20 20 16 16 19 14 13 15 13 11 10 12 13 13 14 13 14 17 17 4
28 28 24 22 19 19 18 15 11 10 12 13 11 11 16 18 15 15 18 20 22 21 21 17 18 14 7 5 7 13 15 13 14 15 13 12 12 14 12 9 13 14 11
30 30 26 23 21 20 20 18 15 14 14 14 14 12 13 15 15 14 19 20 23 23 21 20 16 7 3 4 7 10 14 16 16 17 18 16 14 13 12 11 11 10 12
29 30 28 25 24 21 21 19 17 17 16 14 14 13 11 13 13 14 15 21 24 25 24 23 17 8 5 7 8 10 11 15 18 18 17 17 18 18 17 15 14 13 12
30 30 30 28 26 24 23 22 20 18 17 15 14 13 12 11 12 14 15 16 20 22 23 22 17 12 10 11 10 12 13 15 16 19 19 19 19 19 20 21 19 16 15
31 32 31 30 28 26 25 24 24 22 19 18 16 15 13 12 12 14 14 15 18 17 17 18 16 14 14 12 13 13 14 15 18 19 19 20 22 23 22 19 18 17 16
33 31 32 32 31 28 27 27 27 26 24 22 20 19 19 17 17 15 16 16 16 16 18 18 18 17 15 14 16 18 18 17 18 18 21 24 24 23 20 19 18 15 14
29 29 31 30 31 30 29 25 26 26 25 24 20 21 20 17 18 19 17 16 18 18 18 18 19 19 19 19 19 18 17 18 17 18 22 24 25 24 21 19 15 14 17
33 31 30 30 29 28 27 26 21 23 23 24 23 22 21 19 18 17 20 21 19 21 22 22 23 24 24 23 22 22 21 20 18 21 24 26 26 24 23 21 17 18 16
35 39 37 32 30 29 28 28 26 22 21 25 26 24 24 23 19 20 21 22 22 25 25 26 27 26 27 28 28 29 27 23 23 23 26 27 26 26 24 24 21 22 20
35 35 36 34 33 30 28 26 26 24 23 23 27 27 26 25 23 22 24 26 29 30 32 30 29 28 29 30 32 32 31 27 26 26 27 27 27 27 22 26 26 25 23
35 37 36 32 30 30 29 26 25 24 24 24 28 32 29 28 28 28 28 29 29 31 32 35 34 31 30 30 31 32 30 27 25 26 29 29 28 28 25 29 29 29 23
31 35 38 32 31 31 29 27 26 25 25 26 32 34 34 35 36 36 35 34 34 34 34 33 34 35 32 31 31 32 33 33 32 30 30 30 31 27 28 28 26 25 24
30 33 36 31 29 28 29 29 28 27 26 27 30 34 34 35 34 35 39 39 37 36 35 34 35 35 35 36 35 35 35 35 33 32 32 35 33 31 31 29 29 27 17
31 31 30 27 29 29 31 28 28 29 27 29 29 31 33 35 36 38 39 39 40 41 39 36 34 36 36 36 38 39 39 40 38 38 38 38 38 35 34 33 30 25 22
32 32 31 28 28 29 29 29 29 30 27 28 30 31 35 37 38 39 38 38 39 38 39 40 40 39 37 36 38 38 39 40 39 38 36 34 34 37 38 37 35 28 21
31 30 29 29 28 30 28 28 29 29 32 30 31 33 34 36 37 38 38 38 38 37 37 37 38 39 40 40 39 38 38 38 37 32 34 36 41 45 43 38 29 24 21
29 32 30 27 26 27 26 27 28 29 29 32 34 35 35 36 36 35 34 34 35 35 35 35 36 36 35 33 33 34 31 33 31 29 35 39 44 43 43 35 29 25 22
Wind_Direction
187 169 134 97 72 75 103 78 60 67 85 110 140 155 161 161 160 164 154 153 161 151 143 154 157 164 160 160 162 160 157 123 117 121 146 161 141 151 144 145 147 149 147
189 174 141 116 103 90 116 94 59 77 104 119 131 149 154 162 164 161 152 154 157 149 146 153 152 159 157 166 169 153 144 148 138 136 147 155 148 142 147 148 149 150 166
191 176 153 133 110 105 118 108 94 77 103 112 126 138 147 156 162 154 149 144 142 147 149 156 161 151 155 156 160 159 151 152 146 139 137 136 151 150 149 147 153 156 157
188 178 166 149 129 112 112 115 111 95 111 113 125 134 147 153 156 152 151 144 134 140 140 154 165 158 156 156 151 156 156 151 141 130 136 148 144 157 152 150 147 155 174
186 182 174 155 152 145 116 114 109 105 113 122 125 132 150 152 153 150 143 136 131 132 135 145 157 155 158 163 157 153 151 132 130 119 121 136 145 140 160 167 155 145 134
188 185 175 162 160 160 143 134 142 107 107 118 121 122 139 147 148 143 136 130 131 132 136 138 141 147 145 134 122 144 148 144 133 125 133 136 153 169 178 171 162 147 128
192 186 181 170 161 162 156 129 123 121 129 128 130 140 146 148 153 146 136 131 131 133 134 132 127 125 125 125 120 114 125 124 133 147 155 161 172 183 177 169 162 138 114
194 187 184 176 163 168 161 143 128 119 126 126 122 136 157 152 157 152 141 134 134 134 140 134 124 114 99 119 126 127 140 154 144 134 151 144 151 161 163 161 157 134 116
196 192 188 183 172 170 172 161 143 127 127 129 124 114 135 144 156 156 146 139 145 140 141 132 127 110 113 122 133 138 133 125 128 125 133 136 128 155 155 150 151 146 114
197 197 191 187 182 174 174 171 158 141 130 128 125 129 128 154 159 156 158 148 145 147 154 150 138 130 113 104 129 134 127 130 141 136 131 136 140 161 169 174 177 164 141
203 199 194 191 188 182 177 176 165 152 140 131 122 130 147 145 148 158 188 180 163 166 165 170 169 166 135 126 124 142 136 134 141 147 139 135 135 137 145 154 167 179 152
202 199 196 193 190 185 183 180 174 164 156 150 138 131 136 158 171 165 170 183 181 175 177 178 180 188 195 177 166 156 153 149 147 144 142 137 136 134 134 137 135 129 118
199 198 198 194 193 190 187 185 179 178 168 166 164 153 149 143 148 160 169 171 180 183 184 191 201 200 195 186 188 195 192 185 167 155 153 151 149 145 140 135 128 118 108
191 197 198 195 194 193 194 194 190 186 184 178 180 178 171 166 164 162 161 169 179 184 183 185 197 197 192 198 196 188 187 185 178 173 167 161 157 155 151 142 133 132 119
187 192 195 196 196 196 199 199 200 201 199 193 195 192 187 190 191 184 182 179 184 190 188 189 189 189 191 189 183 183 186 187 186 181 174 168 167 166 158 156 148 141 137
175 183 191 191 193 198 199 201 211 214 211 213 213 207 206 211 203 201 199 199 198 196 191 193 198 201 202 199 195 192 195 198 198 193 183 181 178 176 170 165 164 160 150
178 183 188 189 188 190 195 199 200 214 221 223 224 224 220 219 216 213 214 213 211 211 212 211 214 214 215 214 211 210 211 210 208 204 199 195 192 188 180 175 170 162 148
183 188 189 191 190 192 194 199 204 204 207 217 224 225 225 227 228 223 216 215 208 215 221 225 226 224 223 221 219 218 216 213 210 209 206 202 197 190 183 182 173 167 156
180 185 189 192 195 197 196 198 201 205 208 214 218 222 222 223 226 227 227 221 217 220 223 227 231 233 232 231 228 226 224 220 216 210 208 205 199 194 185 187 181 177 164
186 190 187 189 191 195 197 196 198 203 205 209 217 219 216 217 220 222 223 224 225 230 232 233 235 235 237 238 235 233 231 230 229 222 216 211 206 202 192 189 184 176 174
182 187 187 185 190 193 197 200 205 205 208 211 222 225 222 217 221 226 227 227 229 231 234 238 240 240 240 241 237 233 229 228 226 222 218 213 207 191 193 185 176 178 165
182 183 186 188 190 191 197 202 202 206 211 215 223 230 230 224 224 228 233 234 235 238 240 241 243 245 243 240 238 233 229 227 225 223 219 215 202 191 188 177 169 168 163
181 181 185 190 194 195 198 200 203 209 212 217 222 226 224 225 227 232 236 240 240 241 243 245 248 249 249 247 243 241 237 234 234 228 217 199 191 188 180 170 169 168 169
183 184 185 190 192 195 196 199 207 214 214 217 221 223 231 231 233 235 239 241 242 244 245 246 246 249 252 254 251 247 244 242 237 228 211 187 175 180 172 170 172 179 175
186 184 186 188 192 196 200 202 205 212 217 221 224 228 231 236 237 239 241 242 245 247 249 250 250 251 251 251 251 249 244 239 234 219 204 197 186 173 168 170 179 176 180
195 191 192 191 195 196 197 203 207 209 217 223 227 231 234 237 242 244 246 246 247 249 251 252 254 254 255 252 249 247 245 241 229 209 194 184 169 162 165 175 175 181 185